Location: Poughquag
(41.6090°N, 73.6820°W)
Time: 20:25:09
(UTC-05:00)

Hubble Space Telescope - Visible Passes

Search period start: 18 February 2020 00:00
Search period end: 28 February 2020 00:00
Orbit: 536 x 540 km, 28.5° (Epoch: 18 February)

Date Brightness Start Highest point End Pass type
(mag) Time Alt. Az. Time Alt. Az. Time Alt. Az.
22 Feb 3.6 20:01:58 10° SSW 20:02:00 10° SSW 20:02:00 10° SSW visible
23 Feb 3.2 18:11:36 10° S 18:12:48 11° S 18:13:59 10° SSE visible
23 Feb 3.4 19:51:16 10° SSW 19:52:03 12° SSW 19:52:03 12° SSW visible
24 Feb 3.2 19:40:39 10° SSW 19:42:06 12° S 19:42:06 12° S visible
25 Feb 3.2 19:30:11 10° SSW 19:31:38 12° S 19:32:09 11° S visible
26 Feb 3.3 19:19:57 10° SSW 19:20:51 11° S 19:21:45 10° S visible
